Awendaw, SC

3:20 PM EDT on September 28, 2016 (GMT -0400)
Mount Pleasant

Weather History for KLRO - December, 2013

Change the Weather History Date:

Wednesday, December 4, 2013

  Actual Average (KCHS) Record (KCHS)
Temperature  
Mean Temperature 65 °F 54 °F  
Max Temperature 75 °F 65 °F 80 °F (1982)
Min Temperature 55 °F 43 °F 21 °F (1960)
Degree Days  
Heating Degree Days 0 12  
Month to date heating degree days 46  
Since 1 July heating degree days 338  
Cooling Degree Days 0 0  
Month to date cooling degree days 0  
Year to date cooling degree days 2297  
Growing Degree Days 15 (Base 50)    
Moisture  
Dew Point 63 °F    
Average Humidity 100    
Maximum Humidity 100    
Minimum Humidity 94    
Precipitation  
Precipitation 0.00 in 0.10 in 3.20 in (1941)
Month to date precipitation 0.37  
Year to date precipitation 48.29  
Sea Level Pressure  
Sea Level Pressure 30.04 in    
Wind  
Wind Speed 1 mph (WSW)    
Max Wind Speed 10 mph    
Max Gust Speed -    
Visibility 6 miles    
Events Fog    
T = Trace of Precipitation, MM = Missing Value Source: NWS Daily Summary

Daily Weather History Graph

Daily Weather History Graph

Search for Another Location

Airport or City:

Trip Planner

Search our weather history database for the weather conditions in past years. The results will help you decide how hot, cold, wet, or windy it might be!

Date:

Astronomy

Dec. 04, 2013 Rise Set
Actual Time 7:06 AM EST 5:12 PM EST
Civil Twilight 6:39 AM EST 5:39 PM EST
Nautical Twilight 6:08 AM EST 6:10 PM EST
Astronomical Twilight 5:38 AM EST 6:39 PM EST
Moon 8:35 AM EST (12/4) 7:18 PM EST (12/4)
Length of Visible Light 10h 59m
Length of Day
10h 05m
Waxing Crescent, 4% of the Moon is Illuminated
Dec 4
Waxing Crescent
Dec 9
First Quarter
Dec 17
Full
Dec 25
Last Quarter
Jan 1
New

Hourly Weather History & Observations

Time (EST) Temp. Dew Point Humidity Pressure Visibility Wind Dir Wind Speed Gust Speed Precip Events Conditions
12:15 AM 57.2 °F 57.2 °F 100% 29.99 in 2.0 mi Calm Calm - N/A   Overcast
12:35 AM 57.2 °F 57.2 °F 100% 29.99 in 2.5 mi Calm Calm - N/A   Mostly Cloudy
12:55 AM 57.2 °F 57.2 °F 100% 29.99 in 3.0 mi Calm Calm - N/A   Overcast
1:15 AM 57.2 °F 57.2 °F 100% 29.99 in 2.5 mi Calm Calm - N/A   Overcast
1:35 AM 57.2 °F 57.2 °F 100% 29.99 in 2.5 mi Calm Calm - N/A   Overcast
1:55 AM 57.2 °F 57.2 °F 100% 29.99 in 2.5 mi Calm Calm - N/A   Overcast
2:15 AM 57.2 °F 57.2 °F 100% 29.99 in 3.0 mi Calm Calm - N/A   Overcast
2:35 AM 57.2 °F 57.2 °F 100% 29.99 in 2.0 mi East 3.5 mph - N/A   Overcast
2:55 AM 57.2 °F 57.2 °F 100% 29.99 in 2.5 mi Calm Calm - N/A   Mostly Cloudy
3:15 AM 57.2 °F 57.2 °F 100% 29.99 in 2.5 mi Calm Calm - N/A   Mostly Cloudy
3:35 AM 57.2 °F 57.2 °F 100% 29.99 in 2.0 mi Calm Calm - N/A   Mostly Cloudy
3:55 AM 57.2 °F 57.2 °F 100% 29.98 in 2.5 mi Calm Calm - N/A   Mostly Cloudy
4:15 AM 57.2 °F 57.2 °F 100% 29.99 in 2.0 mi Calm Calm - N/A   Overcast
4:35 AM 59.0 °F 59.0 °F 100% 29.99 in 2.5 mi Calm Calm - N/A   Mostly Cloudy
4:55 AM 57.2 °F 57.2 °F 100% 29.99 in 2.5 mi Calm Calm - N/A   Mostly Cloudy
5:15 AM 57.2 °F 57.2 °F 100% 29.99 in 2.0 mi Calm Calm - N/A   Overcast
5:35 AM 57.2 °F 57.2 °F 100% 29.99 in 2.0 mi Calm Calm - N/A   Overcast
5:55 AM 57.2 °F 57.2 °F 100% 29.99 in 2.5 mi Calm Calm - N/A   Mostly Cloudy
6:15 AM 57.2 °F 57.2 °F 100% 30.00 in 3.0 mi Calm Calm - N/A   Mostly Cloudy
7:35 AM 60.8 °F 60.8 °F 100% 30.02 in 7.0 mi SSW 4.6 mph - N/A   Mostly Cloudy
7:55 AM 62.6 °F 62.6 °F 100% 30.03 in 7.0 mi SW 4.6 mph - N/A   Mostly Cloudy
8:15 AM 62.6 °F 62.6 °F 100% 30.04 in 8.0 mi Calm Calm - N/A   Scattered Clouds
8:55 AM 62.6 °F 62.6 °F 100% 30.05 in 8.0 mi Calm Calm - N/A   Clear
9:15 AM 64.4 °F 64.4 °F 100% 30.06 in 8.0 mi WSW 5.8 mph - N/A   Clear
9:35 AM 66.2 °F 66.2 °F 100% 30.07 in 9.0 mi West 6.9 mph - N/A   Clear
10:35 AM 69.8 °F 69.8 °F 100% 30.06 in 9.0 mi WSW 10.4 mph - N/A   Clear
10:55 AM 71.6 °F 71.6 °F 100% 30.06 in 9.0 mi West 10.4 mph - N/A   Clear
11:15 AM 71.6 °F 71.6 °F 100% 30.06 in 9.0 mi West 8.1 mph - N/A   Clear
11:35 AM 73.4 °F 73.4 °F 100% 30.06 in 9.0 mi WSW 9.2 mph - N/A   Clear
11:55 AM 73.4 °F 73.4 °F 100% 30.05 in 9.0 mi West 6.9 mph - N/A   Clear
12:15 PM 75.2 °F 75.2 °F 100% 30.04 in 9.0 mi West 4.6 mph - N/A   Clear
12:35 PM 75.2 °F 75.2 °F 100% 30.04 in 9.0 mi West 8.1 mph - N/A   Scattered Clouds
1:15 PM 73.4 °F 73.4 °F 100% 30.02 in 9.0 mi West 5.8 mph - N/A   Scattered Clouds
1:35 PM 75.2 °F 75.2 °F 100% 30.01 in 10.0 mi West 6.9 mph - N/A   Clear
1:55 PM 75.2 °F 73.4 °F 94% 30.01 in 9.0 mi Calm Calm - N/A   Partly Cloudy
2:35 PM 75.2 °F 73.4 °F 94% 30.00 in 9.0 mi Calm Calm - N/A   Clear
2:55 PM 73.4 °F 73.4 °F 100% 30.01 in 9.0 mi SSE 3.5 mph - N/A   Scattered Clouds
3:35 PM 73.4 °F 73.4 °F 100% 30.01 in 8.0 mi Calm Calm - N/A   Partly Cloudy
3:55 PM 73.4 °F 73.4 °F 100% 30.01 in 8.0 mi Calm Calm - N/A   Partly Cloudy
4:15 PM 71.6 °F 71.6 °F 100% 30.02 in 9.0 mi Calm Calm - N/A   Clear
4:35 PM 71.6 °F 71.6 °F 100% 30.03 in 8.0 mi Calm Calm - N/A   Clear
4:55 PM 69.8 °F 69.8 °F 100% 30.03 in 8.0 mi Calm Calm - N/A   Clear
5:15 PM 66.2 °F 66.2 °F 100% 30.04 in 7.0 mi Calm Calm - N/A   Clear
5:55 PM 64.4 °F 64.4 °F 100% 30.05 in 8.0 mi Calm Calm - N/A   Clear
6:15 PM 62.6 °F 62.6 °F 100% 30.06 in 8.0 mi Calm Calm - N/A   Clear
6:35 PM 62.6 °F 62.6 °F 100% 30.06 in 7.0 mi Calm Calm - N/A   Clear
6:55 PM 60.8 °F 60.8 °F 100% 30.07 in 7.0 mi Calm Calm - N/A   Clear
7:15 PM 60.8 °F 60.8 °F 100% 30.08 in 5.0 mi Calm Calm - N/A   Clear
7:35 PM 60.8 °F 60.8 °F 100% 30.08 in 5.0 mi Calm Calm - N/A   Clear
7:55 PM 59.0 °F 59.0 °F 100% 30.08 in 5.0 mi Calm Calm - N/A   Clear
8:15 PM 59.0 °F 59.0 °F 100% 30.09 in 5.0 mi Calm Calm - N/A   Clear
8:35 PM 60.8 °F 60.8 °F 100% 30.09 in 4.0 mi Calm Calm - N/A   Clear
8:55 PM 60.8 °F 60.8 °F 100% 30.10 in 4.0 mi Calm Calm - N/A   Clear
9:15 PM 59.0 °F 59.0 °F 100% 30.10 in 4.0 mi Calm Calm - N/A   Clear
9:35 PM 57.2 °F 57.2 °F 100% 30.10 in 5.0 mi Calm Calm - N/A   Clear
9:55 PM 59.0 °F 59.0 °F 100% 30.10 in 4.0 mi Calm Calm - N/A   Clear
10:15 PM 57.2 °F 57.2 °F 100% 30.10 in 5.0 mi Calm Calm - N/A   Clear
10:35 PM 57.2 °F 57.2 °F 100% 30.11 in 4.0 mi Calm Calm - N/A   Clear
10:55 PM 55.4 °F 55.4 °F 100% 30.11 in 4.0 mi Calm Calm - N/A   Partly Cloudy
11:15 PM 57.2 °F 57.2 °F 100% 30.12 in 3.0 mi Calm Calm - N/A   Mostly Cloudy
11:35 PM 57.2 °F 57.2 °F 100% 30.12 in 0.8 mi Calm Calm - N/A   Overcast
11:55 PM 57.2 °F 57.2 °F 100% 30.11 in 0.2 mi Calm Calm - N/A Fog Fog